Preview of NWS' New Version of Forecast
This preview is not operational and should not be used for support decisions.

Regional Weather Roundup (RWR)

Issued by Gray - Portland, ME (GYX)

                            
000
ASUS41 KGYX 252310
RWRGYX
WEATHER ROUNDUP FOR MAINE AND NEW HAMPSHIRE
NATIONAL WEATHER SERVICE GRAY ME
700 PM EDT SAT MAY 25 2019

MEZ002-005-006-010-012-015-018-020-021-024-026-027-029-260000-
MAINE
  
CITY           SKY/WX    TMP DP  RH WIND       PRES   REMARKS
PORTLAND       CLOUDY    59  44  57 S6        30.06F                  
SANFORD        FAIR      62  43  49 S6        30.06F                  
BAR HARBOR     FAIR      54  44  69 S9        30.08F                  
WISCASSET      FAIR      58  43  57 SE3       30.07F                  
ROCKLAND       FAIR      55  45  68 SW6       30.08F                  
FRYEBURG       PTSUNNY   68  44  42 S9G18     30.01F                  
LEWISTONAUBURN FAIR      61  45  55 S9        30.05R                  
AUGUSTA        FAIR      63  43  48 S7        30.05S                  
WATERVILLE     FAIR      63  42  46 VRB5      30.02S                  
BANGOR         CLOUDY    62  37  39 S12       30.04F                  
GREENVILLE       N/A     66  40  38 S7        29.97S                  
MILLINOCKET    FAIR      70  41  34 VRB5      29.99F                  
HOULTON        FAIR      69  38  32 VRB6      29.97F                  
PRESQUE ISLE   FAIR      70  39  32 S8        29.97S                  
FRENCHVILLE    FAIR      71  37  28 S6        29.95F                  
CARIBOU        FAIR      70  38  31 S3        29.95F                  
$$

NHZ002-005-008-009-011-012-014-260000-
NEW HAMPSHIRE
  
CITY           SKY/WX    TMP DP  RH WIND       PRES   REMARKS
PORTSMOUTH     CLOUDY    61  43  51 S13       30.04F                  
ROCHESTER      FAIR      62  42  47 SE10      30.04F                  
NASHUA         PTSUNNY   69  46  43 SE8       30.03F                  
MANCHESTER     CLOUDY    70  44  39 SE14      30.01F                  
CONCORD        LGT RAIN  68  47  46 S8        30.01F                  
LACONIA        CLOUDY    70  45  40 S7        30.01F                  
PLYMOUTH       LGT RAIN  68  46  44 CALM      29.99S                  
BERLIN         LGT RAIN  67  42  40 S9        29.99S                  
WHITEFIELD     CLOUDY    66  43  43 S6        29.97F                  
JAFFREY        CLOUDY    68  46  45 S8        30.04F                  
KEENE          PTSUNNY   69  50  50 S10G20    30.02F                  
LEBANON        CLOUDY    66  50  56 S5        29.99F                  
MT WASHINGTON  NOT AVBL                                               
$$

VTZ005-007-008-260000-
VERMONT
  
CITY           SKY/WX    TMP DP  RH WIND       PRES   REMARKS
ST JOHNSBURY     N/A     67  45  45 MISG      29.94F                  
MONTPELIER     LGT RAIN  59  50  72 S6        30.02S                  
BURLINGTON     LGT RAIN  60  55  83 S12G20    29.94F                  
$$

MAZ007-012-024-CTZ003-RIZ002-NYZ038-NYZ072-260000-
SOUTHERN NEW ENGLAND AND NY
  
CITY           SKY/WX    TMP DP  RH WIND       PRES   REMARKS
BOSTON         CLOUDY    70  46  42 S15       30.06S                  
WORCESTER      FAIR      66  48  52 S13G21    30.08F                  
NANTUCKET      FAIR      55  51  86 S6        30.14F                  
PROVIDENCE     PTSUNNY   66  43  43 SW15G22   30.11S                  
HARTFORD       PTSUNNY   69  45  41 S15G26    30.08S                  
ALBANY         PTSUNNY   71  53  52 S14G23    29.99F                  
NEW YORK CITY  FAIR      64  44  48 S16G23    30.11F                  
$$

ANZ081-ANZ082-ANZ150-NHZ014-MEZ023>029-260000-
COASTAL MARINE OBSERVATIONS
  
STATION/POSITION TIME  TEMP    WIND        PRES    WAVE
                       AIR SEA DIR/SP/G            HT/PER
                 (UTC) (F)     (DEG/KT/KT) (MB)    (FT/S)
ISLE OF SHOALS   2300   54     160/ 20/ 22 1017.3F
JEFFREYS LEDGE   2238      50                N/A     4/ 9
GEORGES BANK BUO 2250   47 45  320/  4/  6 1022.2F   7/10
$$

.............KEY..............
   WCI - WIND CHILL
   TC  - TEMPERATURE IN CELSIUS
   VSB - VISIBILITY IN MILES
   HX  - HEAT INDEX
   FAIR- INDICATES FEW OR NO CLOUDS BELOW 12,000 FT, WITH NO 
         SIGNIFICANT WEATHER AND/OR OBSTRUCTIONS TO VISIBILITY.